Location: Oberstdorf
(47.4188°N, 10.2969°E)
Time: 20:58:40
(UTC+02:00)

ISS - Visible Passes

Search period start: 25 May 2018 00:00
Search period end: 04 June 2018 00:00
Orbit: 402 x 407 km, 51.6° (Epoch: 26 May)

Date Brightness Start Highest point End Pass type
(mag) Time Alt. Az. Time Alt. Az. Time Alt. Az.
25 May -2.4 00:29:52 10° WNW 00:32:58 38° N 00:35:42 12° ENE visible
25 May -2.5 02:06:25 10° WNW 02:08:17 31° WNW 02:08:17 31° WNW visible
25 May -3.4 22:00:35 10° WSW 22:03:51 68° NNW 22:07:07 10° ENE visible
25 May -2.3 23:37:34 10° WNW 23:40:40 37° N 23:43:44 10° ENE visible
26 May -3.3 01:14:14 10° WNW 01:17:15 59° N 01:17:15 59° N visible
26 May -2.4 22:45:13 10° WNW 22:48:20 39° N 22:51:27 10° ENE visible
27 May -2.9 00:22:02 10° WNW 00:25:13 47° NNE 00:26:26 30° ENE visible
27 May -1.3 01:58:34 10° WNW 01:59:02 13° WNW 01:59:02 13° WNW visible
27 May -2.7 21:52:50 10° W 21:56:01 46° NNW 21:59:11 10° ENE visible
27 May -2.5 23:29:46 10° WNW 23:32:53 40° N 23:35:43 12° ENE visible
28 May -2.6 01:06:18 10° WNW 01:08:20 35° WNW 01:08:20 35° WNW visible
28 May -2.3 22:37:27 10° WNW 22:40:33 37° N 22:43:38 10° ENE visible
29 May -3.7 00:14:04 10° WNW 00:17:21 71° NNE 00:17:41 63° ENE visible
29 May -2.3 21:45:05 10° WNW 21:48:10 38° N 21:51:17 10° ENE visible
29 May -3.1 23:21:50 10° WNW 23:25:03 51° NNE 23:27:04 20° E visible
30 May -1.8 00:58:24 10° WNW 00:59:41 20° W 00:59:41 20° W visible
30 May -2.6 22:29:34 10° WNW 22:32:42 42° N 22:35:50 10° E visible
31 May -3.8 00:06:04 10° WNW 00:09:05 63° WSW 00:09:05 63° WSW visible
31 May -3.8 23:13:47 10° WNW 23:17:04 81° NNE 23:18:32 30° ESE visible
01 Jun -1.2 00:50:46 10° W 00:51:09 12° W 00:51:09 12° W visible
01 Jun -3.3 22:21:31 10° WNW 22:24:45 57° NNE 22:27:58 10° E visible
01 Jun -2.7 23:58:09 10° WNW 00:00:36 31° WSW 00:00:36 31° WSW visible
02 Jun -3.7 23:05:44 10° WNW 23:08:57 55° SSW 23:10:05 34° SSE visible
03 Jun -3.9 22:13:23 10° WNW 22:16:41 88° SSW 22:19:35 13° ESE visible
03 Jun -1.7 23:50:35 10° W 23:52:13 16° SW 23:52:13 16° SW visible
